Location: Avenches
(46.8809°N, 7.0410°E)
Time: 18:22:28
(UTC+00:00)

Cosmos 1943 - Pass Details

Date: 30 March 2020
Orbit: 832 x 851 km, 71.0° (Epoch: 02 June)

Event Time Altitude Azimuth Distance (km) Brightness Sun altitude
Exits shadow 19:59:43 28° 165° (SSE) 1,530 4.2 -20.3°
Maximum altitude 20:02:18 47° 109° (ESE) 1,108 3.4 -20.7°
Drops below altitude 10° 20:07:42 10° 37° (NE) 2,476 5.6 -21.4°
Sets 20:10:14 0° 32° (NNE) 3,418 6.4 -21.8°
